,,PA_Meas_PMT16A,,PR_Meas_QMR101_102,,RH_Meas_QMH101,,SR_Meas_QMS101,,TA_Meas_QMH101,,GenWind,,GenWind,
time,status,PA,status,PR,status,RH,status,SR,status,TA,status,DirAvg,status,SpdAvg,
2011-12-03, 00:00:05,VALID,917.201,VALID,0,VALID,97.8465,VALID,0,VALID,18.3394,VALID,20,VALID,0.467969,
2011-12-03, 00:01:05,VALID,917.202,VALID,0,VALID,97.7932,VALID,0,VALID,18.3004,VALID,16,VALID,1.87148,
2011-12-03, 00:02:05,VALID,917.158,VALID,0,VALID,97.8084,VALID,0,VALID,18.3004,VALID,48,VALID,1.55625,
2011-12-03, 00:03:05,VALID,917.146,VALID,0,VALID,97.8313,VALID,0,VALID,18.3199,VALID,28,VALID,0.594922,
2011-12-03, 00:04:05,VALID,917.14,VALID,0,VALID,97.8389,VALID,0,VALID,18.2796,VALID,28,VALID,0.00585938,
2011-12-03, 00:05:05,VALID,917.12,VALID,0,VALID,97.8237,VALID,0,VALID,18.3199,VALID,82,VALID,0.891016,
2011-12-03, 00:06:05,VALID,917.082,VALID,0,VALID,97.816,VALID,0,VALID,18.3004,VALID,24,VALID,1.69336,
2011-12-03, 00:07:05,VALID,917.095,VALID,0,VALID,97.7856,VALID,0,VALID,18.3004,VALID,4,VALID,1.70078,
2011-12-03, 00:08:05,VALID,917.02,VALID,0,VALID,97.816,VALID,0,VALID,18.3004,VALID,18,VALID,1.125,
2011-12-03, 00:09:05,VALID,917.009,VALID,0,VALID,97.7779,VALID,0,VALID,18.3004,VALID,17,VALID,1.49258,
2011-12-03, 00:10:05,VALID,916.984,VALID,0,VALID,97.7703,VALID,0,VALID,18.3004,VALID,23,VALID,1.425,
2011-12-03, 00:11:05,VALID,916.973,VALID,0,VALID,97.7779,VALID,0,VALID,18.3004,VALID,24,VALID,2.37539,
2011-12-03, 00:12:05,VALID,916.931,VALID,0,VALID,97.7398,VALID,0,VALID,18.3004,VALID,339,VALID,1.96406,
2011-12-03, 00:13:05,VALID,916.976,VALID,0,VALID,97.8008,VALID,0,VALID,18.3004,VALID,8,VALID,1.43008,
2011-12-03, 00:14:05,VALID,916.941,VALID,0,VALID,97.7398,VALID,0,VALID,18.2796,VALID,360,VALID,1.8168,
2011-12-03, 00:15:05,VALID,916.934,VALID,0,VALID,97.7398,VALID,0,VALID,18.3199,VALID,10,VALID,2.3168,
2011-12-03, 00:16:05,VALID,916.948,VALID,0,VALID,97.6941,VALID,0,VALID,18.3199,VALID,17,VALID,1.65781,
2011-12-03, 00:17:05,VALID,916.964,VALID,0,VALID,97.7169,VALID,0,VALID,18.3199,VALID,10,VALID,0.704687,
2011-12-03, 00:18:05,VALID,916.949,VALID,0,VALID,97.6865,VALID,0,VALID,18.3394,VALID,340,VALID,0.778125,
2011-12-03, 00:19:05,VALID,916.934,VALID,0,VALID,97.6865,VALID,0,VALID,18.3199,VALID,1,VALID,0.722656,
2011-12-03, 00:20:05,VALID,916.897,VALID,0,VALID,97.6788,VALID,0,VALID,18.3004,VALID,32,VALID,1.32695,
2011-12-03, 00:21:05,VALID,916.91,VALID,0,VALID,97.7246,VALID,0,VALID,18.3199,VALID,23,VALID,1.23594,
2011-12-03, 00:22:04,VALID,916.838,VALID,0,VALID,97.7474,VALID,0,VALID,18.3589,VALID,25,VALID,0.890234,
2011-12-03, 00:23:04,VALID,916.879,VALID,0,VALID,97.6636,VALID,0,VALID,18.3199,VALID,9,VALID,2.19492,
2011-12-03, 00:24:04,VALID,916.88,VALID,0,VALID,97.6865,VALID,0,VALID,18.3199,VALID,29,VALID,1.2293,
2011-12-03, 00:25:04,VALID,916.847,VALID,0,VALID,97.6865,VALID,0,VALID,18.3199,VALID,356,VALID,1.35469,
2011-12-03, 00:26:04,VALID,916.842,VALID,0,VALID,97.656,VALID,0,VALID,18.3004,VALID,360,VALID,1.29141,
2011-12-03, 00:27:04,VALID,916.845,VALID,0,VALID,97.7017,VALID,0,VALID,18.2809,VALID,360,VALID,0.897656,
2011-12-03, 00:28:04,VALID,916.815,VALID,0,VALID,97.7246,VALID,0,VALID,18.2601,VALID,360,VALID,0.625391,
2011-12-03, 00:29:04,VALID,916.814,VALID,0,VALID,97.7093,VALID,0,VALID,18.2809,VALID,360,VALID,1.05781,
2011-12-03, 00:30:04,VALID,916.795,VALID,0,VALID,97.7474,VALID,0,VALID,18.2809,VALID,359,VALID,0.554688,
2011-12-03, 00:31:04,VALID,916.766,VALID,0,VALID,97.7398,VALID,0,VALID,18.2809,VALID,360,VALID,1.05039,
2011-12-03, 00:32:04,VALID,916.771,VALID,0,VALID,97.7856,VALID,0,VALID,18.2809,VALID,354,VALID,1.24102,
2011-12-03, 00:33:04,VALID,916.764,VALID,0,VALID,97.7627,VALID,0,VALID,18.2615,VALID,343,VALID,0.714844,
2011-12-03, 00:34:04,VALID,916.728,VALID,0,VALID,97.7703,VALID,0,VALID,18.2809,VALID,28,VALID,1.36875,
2011-12-03, 00:35:04,VALID,916.668,VALID,0,VALID,97.7398,VALID,0,VALID,18.2615,VALID,9,VALID,1.53945,
2011-12-03, 00:36:04,VALID,916.687,VALID,0,VALID,97.7856,VALID,0,VALID,18.2615,VALID,8,VALID,1.49141,
2011-12-03, 00:37:04,VALID,916.635,VALID,0,VALID,97.8084,VALID,0,VALID,18.2615,VALID,8,VALID,1.49531,
2011-12-03, 00:38:04,VALID,916.659,VALID,0,VALID,97.7703,VALID,0,VALID,18.2225,VALID,8,VALID,1.26797,
2011-12-03, 00:39:04,VALID,916.627,VALID,0,VALID,97.816,VALID,0,VALID,18.242,VALID,8,VALID,1.02461,
2011-12-03, 00:40:04,VALID,916.591,VALID,0,VALID,97.8313,VALID,0,VALID,18.242,VALID,8,VALID,0.975781,
2011-12-03, 00:41:04,VALID,916.579,VALID,0,VALID,97.816,VALID,0,VALID,18.2211,VALID,8,VALID,1.19023,
2011-12-03, 00:42:04,VALID,916.52,VALID,0,VALID,97.8008,VALID,0,VALID,18.2433,VALID,8,VALID,1.17227,
2011-12-03, 00:43:04,VALID,916.51,VALID,0,VALID,97.8313,VALID,0,VALID,18.242,VALID,8,VALID,0.889063,
2011-12-03, 00:44:04,VALID,916.451,VALID,0,VALID,97.8542,VALID,0,VALID,18.2615,VALID,8,VALID,1.05938,
2011-12-03, 00:45:04,VALID,916.451,VALID,0,VALID,97.8389,VALID,0,VALID,18.2615,VALID,8,VALID,0.902344,
2011-12-03, 00:46:04,VALID,916.455,VALID,0,VALID,97.8237,VALID,0,VALID,18.242,VALID,70,VALID,0.832031,
2011-12-03, 00:47:04,VALID,916.389,VALID,0,VALID,97.8008,VALID,0,VALID,18.242,VALID,69,VALID,0.916016,
2011-12-03, 00:48:04,VALID,916.42,VALID,0,VALID,97.8389,VALID,0,VALID,18.242,VALID,68,VALID,0.800391,
2011-12-03, 00:49:04,VALID,916.401,VALID,0,VALID,97.8237,VALID,0,VALID,18.2211,VALID,68,VALID,0.5375,
2011-12-03, 00:50:04,VALID,916.363,VALID,0,VALID,97.7932,VALID,0,VALID,18.242,VALID,44,VALID,1.23242,
2011-12-03, 00:51:04,VALID,916.328,VALID,0,VALID,97.7856,VALID,0,VALID,18.242,VALID,65,VALID,1.68398,
2011-12-03, 00:52:04,VALID,916.362,VALID,0,VALID,97.7856,VALID,0,VALID,18.242,VALID,58,VALID,1.01328,
2011-12-03, 00:53:04,VALID,916.351,VALID,0,VALID,97.7856,VALID,0,VALID,18.2615,VALID,25,VALID,1.31445,
2011-12-03, 00:54:04,VALID,916.349,VALID,0,VALID,97.8008,VALID,0,VALID,18.2809,VALID,19,VALID,0.573828,
2011-12-03, 00:55:04,VALID,916.346,VALID,0,VALID,97.7703,VALID,0,VALID,18.2809,VALID,19,VALID,0.540625,
2011-12-03, 00:56:04,VALID,916.306,VALID,0,VALID,97.7322,VALID,0,VALID,18.2809,VALID,19,VALID,0.931641,
2011-12-03, 00:57:04,VALID,916.305,VALID,0,VALID,97.7322,VALID,0,VALID,18.2809,VALID,37,VALID,1.56094,
2011-12-03, 00:58:04,VALID,916.298,VALID,0,VALID,97.7093,VALID,0,VALID,18.3004,VALID,19,VALID,1.24805,
2011-12-03, 00:59:04,VALID,916.287,VALID,0,VALID,97.6865,VALID,0,VALID,18.3004,VALID,21,VALID,0.946875,
2011-12-03, 01:00:04,VALID,916.283,VALID,0,VALID,97.6865,VALID,0,VALID,18.3004,VALID,14,VALID,1.51211,
2011-12-03, 01:01:04,VALID,916.286,VALID,0,VALID,97.6483,VALID,0,VALID,18.3004,VALID,12,VALID,0.770312,
2011-12-03, 01:02:04,VALID,916.289,VALID,0,VALID,97.6331,VALID,0,VALID,18.3199,VALID,12,VALID,0.900391,
2011-12-03, 01:03:04,VALID,916.272,VALID,0,VALID,97.656,VALID,0,VALID,18.3004,VALID,12,VALID,0.829297,
2011-12-03, 01:04:04,VALID,916.217,VALID,0,VALID,97.6407,VALID,0,VALID,18.3213,VALID,12,VALID,0.678516,
2011-12-03, 01:05:04,VALID,916.181,VALID,0,VALID,97.6636,VALID,0,VALID,18.2809,VALID,12,VALID,0.709766,
2011-12-03, 01:06:04,VALID,916.171,VALID,0,VALID,97.6483,VALID,0,VALID,18.299,VALID,12,VALID,0.295703,
2011-12-03, 01:07:04,VALID,916.158,VALID,0,VALID,97.6331,VALID,0,VALID,18.3199,VALID,12,VALID,0.832812,
2011-12-03, 01:08:04,VALID,916.115,VALID,0,VALID,97.5721,VALID,0,VALID,18.2601,VALID,27,VALID,1.25703,
2011-12-03, 01:09:04,VALID,916.106,VALID,0,VALID,97.5492,VALID,0,VALID,18.2809,VALID,15,VALID,1.29336,
2011-12-03, 01:10:04,VALID,916.084,VALID,0,VALID,97.5264,VALID,0,VALID,18.299,VALID,5,VALID,1.02891,
2011-12-03, 01:11:04,VALID,916.131,VALID,0,VALID,97.534,VALID,0,VALID,18.3199,VALID,7,VALID,1.0332,
2011-12-03, 01:12:04,VALID,916.108,VALID,0,VALID,97.4959,VALID,0,VALID,18.3199,VALID,9,VALID,1.04688,
2011-12-03, 01:13:04,VALID,916.089,VALID,0,VALID,97.4577,VALID,0,VALID,18.3199,VALID,11,VALID,0.726563,
2011-12-03, 01:14:04,VALID,916.04,VALID,0,VALID,97.473,VALID,0,VALID,18.3199,VALID,12,VALID,0.591406,
2011-12-03, 01:15:04,VALID,916.028,VALID,0,VALID,97.4654,VALID,0,VALID,18.3199,VALID,12,VALID,0.971875,
2011-12-03, 01:16:04,VALID,916.01,VALID,0,VALID,97.4273,VALID,0,VALID,18.3213,VALID,12,VALID,0.838672,
2011-12-03, 01:17:04,VALID,915.991,VALID,0,VALID,97.3815,VALID,0,VALID,18.3004,VALID,12,VALID,0.8125,
2011-12-03, 01:18:04,VALID,915.978,VALID,0,VALID,97.3586,VALID,0,VALID,18.3199,VALID,11,VALID,0.430469,
2011-12-03, 01:19:04,VALID,915.983,VALID,0,VALID,97.3434,VALID,0,VALID,18.3185,VALID,12,VALID,0.702344,
2011-12-03, 01:20:04,VALID,915.968,VALID,0,VALID,97.2443,VALID,0,VALID,18.3199,VALID,34,VALID,0.854297,
2011-12-03, 01:21:04,VALID,915.946,VALID,0,VALID,97.2214,VALID,0,VALID,18.3589,VALID,34,VALID,0.422656,
2011-12-03, 01:22:04,VALID,915.935,VALID,0,VALID,97.1833,VALID,0,VALID,18.338,VALID,34,VALID,0.479688,
2011-12-03, 01:23:04,VALID,915.917,VALID,0,VALID,97.1909,VALID,0,VALID,18.3784,VALID,34,VALID,0.414453,
2011-12-03, 01:24:04,VALID,915.918,VALID,0,VALID,97.1909,VALID,0,VALID,18.3784,VALID,34,VALID,0.669922,
2011-12-03, 01:25:04,VALID,915.9,VALID,0,VALID,97.0232,VALID,0,VALID,18.3185,VALID,34,VALID,0.892969,
2011-12-03, 01:26:04,VALID,915.934,VALID,0,VALID,96.9698,VALID,0,VALID,18.338,VALID,34,VALID,0.865625,
2011-12-03, 01:27:04,VALID,915.899,VALID,0,VALID,96.947,VALID,0,VALID,18.3784,VALID,34,VALID,0.634766,
2011-12-03, 01:28:04,VALID,915.903,VALID,0,VALID,96.9012,VALID,0,VALID,18.3784,VALID,33,VALID,0.528125,
2011-12-03, 01:29:04,VALID,915.912,VALID,0,VALID,96.8479,VALID,0,VALID,18.3589,VALID,33,VALID,0.466797,
2011-12-03, 01:30:04,VALID,915.888,VALID,0,VALID,96.8021,VALID,0,VALID,18.3589,VALID,33,VALID,0.338281,
2011-12-03, 01:31:04,VALID,915.905,VALID,0,VALID,96.7869,VALID,0,VALID,18.3185,VALID,33,VALID,0.492969,
2011-12-03, 01:32:04,VALID,915.881,VALID,0,VALID,96.7335,VALID,0,VALID,18.3394,VALID,32,VALID,0.830859,
2011-12-03, 01:33:04,VALID,915.884,VALID,0,VALID,96.6497,VALID,0,VALID,18.3004,VALID,32,VALID,1.07422,
2011-12-03, 01:34:04,VALID,915.859,VALID,0,VALID,96.6725,VALID,0,VALID,18.3199,VALID,32,VALID,0.950391,
2011-12-03, 01:35:04,VALID,915.819,VALID,0,VALID,96.5506,VALID,0,VALID,18.3004,VALID,23,VALID,1.23242,
2011-12-03, 01:36:04,VALID,915.839,VALID,0,VALID,96.4286,VALID,0,VALID,18.3394,VALID,23,VALID,0.858594,
2011-12-03, 01:37:04,VALID,915.818,VALID,0,VALID,96.3295,VALID,0,VALID,18.3394,VALID,22,VALID,1.28867,
2011-12-03, 01:38:04,VALID,915.81,VALID,0,VALID,96.1618,VALID,0,VALID,18.338,VALID,21,VALID,1.05742,
2011-12-03, 01:39:04,VALID,915.777,VALID,0,VALID,96.1008,VALID,0,VALID,18.3784,VALID,14,VALID,0.683203,
2011-12-03, 01:40:04,VALID,915.731,VALID,0,VALID,96.0322,VALID,0,VALID,18.3784,VALID,14,VALID,0.0941406,
2011-12-03, 01:41:04,VALID,915.7,VALID,0,VALID,95.9788,VALID,0,VALID,18.3784,VALID,14,VALID,0.116016,
2011-12-03, 01:42:04,VALID,915.699,VALID,0,VALID,95.8873,VALID,0,VALID,18.3589,VALID,14,VALID,0.665625,
2011-12-03, 01:43:04,VALID,915.676,VALID,0,VALID,95.9026,VALID,0,VALID,18.3589,VALID,14,VALID,0.957031,
2011-12-03, 01:44:04,VALID,915.651,VALID,0,VALID,95.8492,VALID,0,VALID,18.3394,VALID,15,VALID,1.14023,
2011-12-03, 01:45:04,VALID,915.634,VALID,0,VALID,95.8416,VALID,0,VALID,18.299,VALID,38,VALID,1.08008,
2011-12-03, 01:46:04,VALID,915.609,VALID,0,VALID,95.8645,VALID,0,VALID,18.3004,VALID,38,VALID,0.679297,
2011-12-03, 01:47:04,VALID,915.617,VALID,0,VALID,95.895,VALID,0,VALID,18.3004,VALID,38,VALID,0.607031,
2011-12-03, 01:48:04,VALID,915.616,VALID,0,VALID,95.8797,VALID,0,VALID,18.2796,VALID,38,VALID,0.345703,
2011-12-03, 01:49:04,VALID,915.612,VALID,0,VALID,95.9254,VALID,0,VALID,18.3004,VALID,38,VALID,0.0917969,
2011-12-03, 01:50:04,VALID,915.578,VALID,0,VALID,95.9254,VALID,0,VALID,18.2796,VALID,38,VALID,0.299219,
2011-12-03, 01:51:04,VALID,915.559,VALID,0,VALID,95.9026,VALID,0,VALID,18.2615,VALID,38,VALID,0.407813,
2011-12-03, 01:52:04,VALID,915.555,VALID,0,VALID,95.773,VALID,0,VALID,18.2809,VALID,38,VALID,0.517187,
2011-12-03, 01:53:04,VALID,915.508,VALID,0,VALID,95.7425,VALID,0,VALID,18.3004,VALID,38,VALID,0.65625,
2011-12-03, 01:54:04,VALID,915.5,VALID,0,VALID,95.5671,VALID,0,VALID,18.3199,VALID,38,VALID,0.557422,
2011-12-03, 01:55:04,VALID,915.5,VALID,0,VALID,95.4147,VALID,0.107441,VALID,18.3394,VALID,38,VALID,0.298438,
2011-12-03, 01:56:04,VALID,915.475,VALID,0,VALID,95.2393,VALID,0,VALID,18.3185,VALID,38,VALID,0.219141,
2011-12-03, 01:57:04,VALID,915.417,VALID,0,VALID,95.0792,VALID,0,VALID,18.3589,VALID,38,VALID,0.44375,
2011-12-03, 01:58:04,VALID,915.405,VALID,0,VALID,94.7591,VALID,0,VALID,18.377,VALID,38,VALID,0.717969,
2011-12-03, 01:59:04,VALID,915.438,VALID,0,VALID,94.6371,VALID,0,VALID,18.4174,VALID,38,VALID,0.408984,
2011-12-03, 02:00:04,VALID,915.398,VALID,0,VALID,94.6142,VALID,0,VALID,18.4174,VALID,38,VALID,0,
2011-12-03, 02:01:04,VALID,915.393,VALID,0,VALID,94.6905,VALID,0.107441,VALID,18.3979,VALID,38,VALID,0,
2011-12-03, 02:02:04,VALID,915.402,VALID,0,VALID,94.6828,VALID,0,VALID,18.4174,VALID,38,VALID,0.50625,
2011-12-03, 02:03:04,VALID,915.367,VALID,0,VALID,94.5075,VALID,0,VALID,18.3784,VALID,38,VALID,0.741406,
2011-12-03, 02:04:04,VALID,915.352,VALID,0,VALID,94.4694,VALID,0,VALID,18.3979,VALID,38,VALID,0.505469,
2011-12-03, 02:05:04,VALID,915.336,VALID,0,VALID,94.4922,VALID,0,VALID,18.3784,VALID,38,VALID,0,
2011-12-03, 02:06:04,VALID,915.333,VALID,0,VALID,94.6523,VALID,0,VALID,18.4369,VALID,38,VALID,0.380469,
2011-12-03, 02:07:04,VALID,915.332,VALID,0,VALID,94.7972,VALID,0,VALID,18.3589,VALID,38,VALID,0.0519531,
2011-12-03, 02:08:04,VALID,915.31,VALID,0,VALID,94.9192,VALID,0,VALID,18.3784,VALID,38,VALID,0,
2011-12-03, 02:09:04,VALID,915.295,VALID,0,VALID,95.0716,VALID,0,VALID,18.3784,VALID,38,VALID,0.0515625,
2011-12-03, 02:10:04,VALID,915.277,VALID,0,VALID,94.9344,VALID,0,VALID,18.3185,VALID,38,VALID,0,
2011-12-03, 02:11:04,VALID,915.243,VALID,0,VALID,94.9344,VALID,0,VALID,18.3185,VALID,38,VALID,0,
2011-12-03, 02:12:04,VALID,915.235,VALID,0,VALID,94.9268,VALID,0,VALID,18.3979,VALID,38,VALID,0,
2011-12-03, 02:13:04,VALID,915.245,VALID,0,VALID,94.7819,VALID,0,VALID,18.3589,VALID,38,VALID,0.101953,
2011-12-03, 02:14:04,VALID,915.236,VALID,0,VALID,94.6676,VALID,0,VALID,18.3589,VALID,38,VALID,0.405859,
2011-12-03, 02:15:04,VALID,915.212,VALID,0,VALID,94.5609,VALID,0.107441,VALID,18.3589,VALID,38,VALID,0.592578,
2011-12-03, 02:16:04,VALID,915.219,VALID,0,VALID,94.4465,VALID,0,VALID,18.3784,VALID,38,VALID,0.451172,
2011-12-03, 02:17:04,VALID,915.231,VALID,0,VALID,94.2559,VALID,0,VALID,18.3979,VALID,38,VALID,0.392578,
2011-12-03, 02:18:04,VALID,915.216,VALID,0,VALID,93.9205,VALID,0,VALID,18.4174,VALID,38,VALID,0.564453,
2011-12-03, 02:19:04,VALID,915.222,VALID,0,VALID,93.6003,VALID,0,VALID,18.4174,VALID,38,VALID,0.273047,
2011-12-03, 02:20:04,VALID,915.223,VALID,0,VALID,93.4097,VALID,0,VALID,18.4759,VALID,38,VALID,0.58125,
2011-12-03, 02:21:04,VALID,915.194,VALID,0,VALID,93.3182,VALID,0,VALID,18.4564,VALID,38,VALID,0.549219,
2011-12-03, 02:22:04,VALID,915.187,VALID,0,VALID,93.2191,VALID,0,VALID,18.4745,VALID,38,VALID,0.865234,
2011-12-03, 02:23:04,VALID,915.186,VALID,0,VALID,93.0743,VALID,0,VALID,18.4759,VALID,38,VALID,0.892969,
2011-12-03, 02:24:04,VALID,915.193,VALID,0,VALID,93.0285,VALID,0,VALID,18.5163,VALID,38,VALID,0.926562,
2011-12-03, 02:25:04,VALID,915.168,VALID,0,VALID,92.8685,VALID,0,VALID,18.5344,VALID,38,VALID,0.677344,
2011-12-03, 02:26:04,VALID,915.167,VALID,0,VALID,92.8303,VALID,0,VALID,18.5539,VALID,38,VALID,0.823438,
2011-12-03, 02:27:04,VALID,915.135,VALID,0,VALID,92.8761,VALID,0,VALID,18.5943,VALID,38,VALID,0.810156,
2011-12-03, 02:28:04,VALID,915.104,VALID,0,VALID,93.1276,VALID,0,VALID,18.5734,VALID,38,VALID,0.842969,
2011-12-03, 02:29:04,VALID,915.117,VALID,0,VALID,93.5393,VALID,0,VALID,18.5525,VALID,38,VALID,0.936719,
2011-12-03, 02:30:04,VALID,915.11,VALID,0,VALID,93.8214,VALID,0,VALID,18.494,VALID,38,VALID,0.972656,
2011-12-03, 02:31:04,VALID,915.103,VALID,0,VALID,94.0348,VALID,0,VALID,18.4564,VALID,38,VALID,0.974609,
2011-12-03, 02:32:04,VALID,915.103,VALID,0,VALID,93.9891,VALID,0,VALID,18.416,VALID,38,VALID,0.898047,
2011-12-03, 02:33:04,VALID,915.095,VALID,0,VALID,93.951,VALID,0,VALID,18.4355,VALID,38,VALID,0.789453,
2011-12-03, 02:34:04,VALID,915.079,VALID,0,VALID,93.8976,VALID,0,VALID,18.3979,VALID,38,VALID,0.673047,
2011-12-03, 02:35:04,VALID,915.058,VALID,0,VALID,93.5012,VALID,0,VALID,18.3589,VALID,38,VALID,0.679297,
2011-12-03, 02:36:04,VALID,915.031,VALID,0,VALID,93.181,VALID,0,VALID,18.4954,VALID,38,VALID,0.470313,
2011-12-03, 02:37:04,VALID,915.006,VALID,0,VALID,92.8608,VALID,0,VALID,18.4759,VALID,38,VALID,0.389453,
2011-12-03, 02:38:04,VALID,914.989,VALID,0,VALID,92.5483,VALID,0,VALID,18.5344,VALID,38,VALID,0.364844,
2011-12-03, 02:39:04,VALID,914.982,VALID,0,VALID,92.6093,VALID,0,VALID,18.5135,VALID,38,VALID,0.620313,
2011-12-03, 02:40:04,VALID,914.922,VALID,0,VALID,92.9142,VALID,0,VALID,18.5149,VALID,38,VALID,0.79375,
2011-12-03, 02:41:04,VALID,914.924,VALID,0,VALID,93.0514,VALID,0,VALID,18.4954,VALID,38,VALID,0.986719,
2011-12-03, 02:42:04,VALID,914.89,VALID,0,VALID,92.8303,VALID,0,VALID,18.5149,VALID,38,VALID,1.08594,
2011-12-03, 02:43:04,VALID,914.913,VALID,0,VALID,92.716,VALID,0,VALID,18.4759,VALID,38,VALID,1.01484,
2011-12-03, 02:44:04,VALID,914.911,VALID,0,VALID,92.7236,VALID,0,VALID,18.5149,VALID,38,VALID,0.755469,
2011-12-03, 02:45:04,VALID,914.884,VALID,0,VALID,92.8532,VALID,0,VALID,18.5149,VALID,38,VALID,0.725,
2011-12-03, 02:46:04,VALID,914.855,VALID,0,VALID,92.7541,VALID,0,VALID,18.4564,VALID,38,VALID,0.708203,
2011-12-03, 02:47:04,VALID,914.858,VALID,0,VALID,92.7693,VALID,0,VALID,18.4759,VALID,38,VALID,0.894531,
2011-12-03, 02:48:04,VALID,914.867,VALID,0,VALID,93.3182,VALID,0,VALID,18.4564,VALID,38,VALID,0.970312,
2011-12-03, 02:49:04,VALID,914.867,VALID,0,VALID,93.7147,VALID,0,VALID,18.4369,VALID,38,VALID,1.20391,
2011-12-03, 02:50:04,VALID,914.869,VALID,0,VALID,94.1263,VALID,0,VALID,18.3784,VALID,38,VALID,1.23555,
2011-12-03, 02:51:04,VALID,914.866,VALID,0,VALID,94.3931,VALID,0,VALID,18.3394,VALID,38,VALID,0.873047,
2011-12-03, 02:52:04,VALID,914.847,VALID,0,VALID,94.6142,VALID,0,VALID,18.3199,VALID,38,VALID,0.915234,
2011-12-03, 02:53:04,VALID,914.847,VALID,0,VALID,94.82,VALID,0,VALID,18.2809,VALID,38,VALID,0.705078,
2011-12-03, 02:54:04,VALID,914.868,VALID,0,VALID,94.9954,VALID,0,VALID,18.3004,VALID,38,VALID,0.695703,
2011-12-03, 02:55:04,VALID,914.84,VALID,0,VALID,95.1936,VALID,0,VALID,18.3004,VALID,38,VALID,0.00859375,
2011-12-03, 02:56:04,VALID,914.871,VALID,0,VALID,95.3537,VALID,0,VALID,18.2809,VALID,38,VALID,0.684375,
2011-12-03, 02:57:04,VALID,914.842,VALID,0,VALID,95.5214,VALID,0,VALID,18.2615,VALID,38,VALID,0.564844,
2011-12-03, 02:58:04,VALID,914.828,VALID,0,VALID,95.6434,VALID,0,VALID,18.2615,VALID,38,VALID,0.440625,
2011-12-03, 02:59:04,VALID,914.852,VALID,0,VALID,95.7654,VALID,0,VALID,18.2615,VALID,38,VALID,0.579297,
2011-12-03, 03:00:04,VALID,914.818,VALID,0,VALID,95.9102,VALID,0,VALID,18.242,VALID,38,VALID,0.742188,
2011-12-03, 03:01:04,VALID,914.773,VALID,0,VALID,96.0169,VALID,0,VALID,18.2225,VALID,38,VALID,0.803906,
2011-12-03, 03:02:04,VALID,914.763,VALID,0,VALID,96.1008,VALID,0,VALID,18.203,VALID,38,VALID,0.523828,
2011-12-03, 03:03:04,VALID,914.714,VALID,0,VALID,96.1846,VALID,0,VALID,18.203,VALID,38,VALID,0.555469,
2011-12-03, 03:04:04,VALID,914.704,VALID,0,VALID,96.2456,VALID,0,VALID,18.203,VALID,38,VALID,0.79375,
2011-12-03, 03:05:04,VALID,914.671,VALID,0,VALID,96.2914,VALID,0,VALID,18.203,VALID,38,VALID,0.965234,
2011-12-03, 03:06:04,VALID,914.647,VALID,0,VALID,96.3219,VALID,0,VALID,18.1821,VALID,38,VALID,0.767187,
2011-12-03, 03:07:04,VALID,914.674,VALID,0,VALID,96.3371,VALID,0,VALID,18.203,VALID,38,VALID,1.18164,
2011-12-03, 03:08:04,VALID,914.678,VALID,0,VALID,96.3676,VALID,0,VALID,18.1835,VALID,38,VALID,0.990234,
2011-12-03, 03:09:04,VALID,914.638,VALID,0,VALID,96.3676,VALID,0,VALID,18.203,VALID,38,VALID,0.779688,
2011-12-03, 03:10:04,VALID,914.634,VALID,0,VALID,96.3981,VALID,0,VALID,18.203,VALID,38,VALID,0.994922,
2011-12-03, 03:11:04,VALID,914.626,VALID,0,VALID,96.421,VALID,0,VALID,18.2225,VALID,38,VALID,0.961328,
2011-12-03, 03:12:04,VALID,914.629,VALID,0,VALID,96.4515,VALID,0,VALID,18.203,VALID,38,VALID,0.75,
2011-12-03, 03:13:04,VALID,914.625,VALID,0,VALID,96.4743,VALID,0,VALID,18.2016,VALID,38,VALID,0.423828,
2011-12-03, 03:14:04,VALID,914.644,VALID,0,VALID,96.4896,VALID,0,VALID,18.203,VALID,38,VALID,0.270312,
2011-12-03, 03:15:04,VALID,914.658,VALID,0,VALID,96.5048,VALID,0,VALID,18.203,VALID,38,VALID,0.110156,
2011-12-03, 03:16:04,VALID,914.679,VALID,0,VALID,96.5353,VALID,0,VALID,18.1835,VALID,38,VALID,0.262109,
2011-12-03, 03:17:04,VALID,914.71,VALID,0,VALID,96.5429,VALID,0,VALID,18.1835,VALID,38,VALID,0.179297,
2011-12-03, 03:18:04,VALID,914.68,VALID,0,VALID,96.5734,VALID,0,VALID,18.1835,VALID,38,VALID,0.699609,
2011-12-03, 03:19:04,VALID,914.717,VALID,0,VALID,96.5734,VALID,0,VALID,18.1821,VALID,38,VALID,0.202344,
2011-12-03, 03:20:04,VALID,914.687,VALID,0,VALID,96.6039,VALID,0,VALID,18.1835,VALID,38,VALID,0.29375,
2011-12-03, 03:21:04,VALID,914.722,VALID,0,VALID,96.5963,VALID,0,VALID,18.203,VALID,38,VALID,0.452344,
2011-12-03, 03:22:04,VALID,914.712,VALID,0,VALID,96.6192,VALID,0,VALID,18.1835,VALID,38,VALID,0.269531,
2011-12-03, 03:23:04,VALID,914.724,VALID,0,VALID,96.6192,VALID,0,VALID,18.1626,VALID,38,VALID,0,
2011-12-03, 03:24:04,VALID,914.713,VALID,0,VALID,96.6573,VALID,0,VALID,18.1626,VALID,38,VALID,0,
2011-12-03, 03:25:04,VALID,914.691,VALID,0,VALID,96.6268,VALID,0.107441,VALID,18.1835,VALID,38,VALID,0.519531,
2011-12-03, 03:26:04,VALID,914.664,VALID,0,VALID,96.6573,VALID,0,VALID,18.1835,VALID,38,VALID,0.594141,
2011-12-03, 03:27:04,VALID,914.694,VALID,0,VALID,96.6497,VALID,0,VALID,18.203,VALID,38,VALID,0.868359,
2011-12-03, 03:28:04,VALID,914.666,VALID,0,VALID,96.5658,VALID,0,VALID,18.1835,VALID,38,VALID,0.967578,
2011-12-03, 03:29:04,VALID,914.67,VALID,0,VALID,96.5353,VALID,0,VALID,18.1626,VALID,38,VALID,0.749219,
2011-12-03, 03:30:04,VALID,914.682,VALID,0,VALID,96.5048,VALID,0,VALID,18.1835,VALID,38,VALID,0.315234,
2011-12-03, 03:31:04,VALID,914.704,VALID,0,VALID,96.5124,VALID,0,VALID,18.203,VALID,38,VALID,0.399609,
2011-12-03, 03:32:04,VALID,914.701,VALID,0,VALID,96.4591,VALID,0,VALID,18.2225,VALID,38,VALID,0.708984,
2011-12-03, 03:33:04,VALID,914.683,VALID,0,VALID,96.5277,VALID,0,VALID,18.2406,VALID,38,VALID,0.632031,
2011-12-03, 03:34:04,VALID,914.716,VALID,0,VALID,96.5963,VALID,0.107441,VALID,18.2615,VALID,38,VALID,0.360938,
2011-12-03, 03:35:04,VALID,914.655,VALID,0,VALID,96.6497,VALID,0,VALID,18.242,VALID,38,VALID,0.271094,
2011-12-03, 03:36:04,VALID,914.641,VALID,0,VALID,96.6573,VALID,0,VALID,18.242,VALID,38,VALID,0,
2011-12-03, 03:37:04,VALID,914.631,VALID,0,VALID,96.7259,VALID,0,VALID,18.2211,VALID,38,VALID,0,
2011-12-03, 03:38:04,VALID,914.589,VALID,0,VALID,96.7488,VALID,0,VALID,18.2211,VALID,38,VALID,0.346875,
2011-12-03, 03:39:04,VALID,914.589,VALID,0,VALID,96.7793,VALID,0,VALID,18.2211,VALID,38,VALID,0.361328,
2011-12-03, 03:40:04,VALID,914.58,VALID,0,VALID,96.7564,VALID,0,VALID,18.203,VALID,38,VALID,0.486328,
2011-12-03, 03:41:04,VALID,914.572,VALID,0,VALID,96.7259,VALID,0,VALID,18.164,VALID,38,VALID,0.519922,
2011-12-03, 03:42:04,VALID,914.558,VALID,0,VALID,96.6497,VALID,0.107441,VALID,18.1236,VALID,38,VALID,0.262109,
2011-12-03, 03:43:04,VALID,914.511,VALID,0,VALID,96.6878,VALID,0,VALID,18.164,VALID,38,VALID,0.224219,
2011-12-03, 03:44:04,VALID,914.529,VALID,0,VALID,96.6802,VALID,0,VALID,18.1835,VALID,38,VALID,0,
2011-12-03, 03:45:04,VALID,914.509,VALID,0,VALID,96.6497,VALID,0.107441,VALID,18.1821,VALID,38,VALID,0,
2011-12-03, 03:46:04,VALID,914.52,VALID,0,VALID,96.6268,VALID,0.107441,VALID,18.1626,VALID,38,VALID,0,
2011-12-03, 03:47:04,VALID,914.514,VALID,0,VALID,96.6344,VALID,0,VALID,18.164,VALID,38,VALID,0.289063,